Regional Weather Roundup
Issued by NWS Sterling, VA

Home | Current Version | Previous Version | Graphics & Text | Print | Product List | Glossary On
Versions: 1 2 3 4 5 6 7 8 9 10 11 12 13 14 15 16 17 18 19 20 21 22 23 24 25 26 27 28 29 30 31 32 33 34 35 36 37 38 39 40 41 42 43 44 45 46 47 48
000
ASUS41 KLWX 301610
RWRLWX

REGIONAL WEATHER ROUNDUP
NATIONAL WEATHER SERVICE BALTIMORE MD/WASHINGTON DC
1200 PM EDT THU JUL 30 2015

Note: "FAIR" indicates few or no clouds below 12,000 feet
with no significant weather and/or obstructions to visibility.
 TC=TEMPERATURE CELSIUS

 * =Non NWS site. Station does not report precipitation (e.g. rain,
    snow, etc.), thunder, or fog.

DCZ001-MDZ009-015-VAZ040>042-051-053>054-301700-
WASHINGTON METRO

CITY           SKY/WX    TMP DP  RH WIND       PRES   REMARKS
WASHINGTON NAT PTSUNNY   89  76  65 S7        29.91F HX 100
DULLES         PTSUNNY   86  76  71 SW7       29.92F HX  96
ANDREWS AFB    MOSUNNY   89  74  62 SW8       29.92S HX  97
FT BELVOIR     MOSUNNY   87  75  68 SE8       29.91F HX  96
COLLEGE PARK*  MOSUNNY   88  73  62 SW3       29.91S HX  96
LEESBURG*      PTSUNNY   90  79  70 SW8G17    29.93S HX 105
MANASSAS*      SUNNY     88  75  66 SW3       29.92S HX  97
GAITHERSBURG*  PTSUNNY   88  75  66 SW6       29.96S HX  97

$$

MDZ006>007-011-014-301700-
BALTIMORE METRO

CITY           SKY/WX    TMP DP  RH WIND       PRES   REMARKS
BWI AIRPORT    PTSUNNY   88  74  63 SW6       29.90F HX  96
MD SCIENCE CTR   N/A     87  74  64 MISG      29.90S HX  95
MARTIN STATE   PTSUNNY   88  79  74 SE9       29.92S HX 102
ANNAPOLIS      PTSUNNY   85  75  72 S12       29.91S HX  93
FORT MEADE*    MOSUNNY   84  73  70 SW6       29.93F HX  91

$$

MDZ012-015-019>023-301700-
MARYLAND EASTERN SHORE

CITY           SKY/WX    TMP DP  RH WIND       PRES   REMARKS
OCEAN CITY     SUNNY     85  74  69 S12G17    29.95F HX  92
SALISBURY      SUNNY     86  74  67 SW10      29.94F HX  94
BAY BRIDGE AP*   N/A     86  72  62 S12       29.92S HX  92
CAMBRIDGE*     MOSUNNY   84  70  61 SW7       29.93S
EASTON*        MOSUNNY   90  73  58 SW14      29.96S HX  98

$$

MDZ017>025-301700-
SOUTHERN MARYLAND

CITY           SKY/WX    TMP DP  RH WIND       PRES   REMARKS
PATUXENT RIVER CLOUDY    85  73  67 SW10      29.93S HX  91
ST INIGOES     PTSUNNY   84  73  69 S8        29.93S HX  90
LEONARDTOWN*   MOSUNNY   86  72  62 SW5       29.95F HX  92

$$

MDZ003>005-301700-
NORTH CENTRAL MARYLAND

CITY           SKY/WX    TMP DP  RH WIND       PRES   REMARKS
FREDERICK*     PTSUNNY   90  79  70 SW6       29.93F HX 105
HAGERSTOWN APT LGT RAIN  79  74  84 W10       29.93S
WESTMINSTER*   PTSUNNY   84  79  84 SW8       29.93F HX  96

$$

MDZ501>502-301700-
WESTERN MARYLAND

CITY           SKY/WX    TMP DP  RH WIND       PRES   REMARKS
OAKLAND*       PTSUNNY   72 N/A N/A W6        30.09S
CUMBERLAND*    PTSUNNY   81  75  83 CALM      29.99F

$$

VAZ025>031-301700-
SHENANDOAH VALLEY

CITY           SKY/WX    TMP DP  RH WIND       PRES   REMARKS
WINCHESTER*    CLOUDY    84  72  65 NW13G18   29.96R
FRONT ROYAL*   CLOUDY    81  75  83 CALM      29.95R
LURAY*         PTSUNNY   86  75  70 SW7       29.97S HX  95
NEW MARKET*    CLOUDY    83  74  74 CALM      29.95S HX  90
STAUNTON*      PTSUNNY   87  73  62 SW6       30.00F HX  94
WAYNESBORO*    CLOUDY    80  73  79 W5        30.01S

$$

WVZ021-048>050-054>055-301700-
EASTERN WEST VIRGINIA PANHANDLE

CITY           SKY/WX    TMP DP  RH WIND       PRES   REMARKS
MARTINSBURG    LGT RAIN  77  74  90 W12       29.96R FOG
PETERSBURG*    PTSUNNY  N/A N/A N/A CALM      29.98F

$$

VAZ036>039-050-301700-
CENTRAL FOOTHILLS

CITY           SKY/WX    TMP DP  RH WIND       PRES   REMARKS
CHARLOTTESVILL PTSUNNY   86  75  69 CALM      29.95R HX  95
CULPEPER*      MOSUNNY   86  76  72 CALM      29.93F HX  97
ORANGE*        MOSUNNY   88  77  70 S8        29.95S HX 100
GORDONSVILLE*  FAIR      86  75  70 SW5       29.94S HX  95
WARRENTON*     FAIR      89  78  71 CALM      29.93S HX 103

$$

VAZ055>057-301700-
NORTH AND CENTRAL PIEDMONT

CITY           SKY/WX    TMP DP  RH WIND       PRES   REMARKS
FREDERICKSBRG* MOSUNNY   90  76  62 S7        29.92S HX 101
STAFFORD*      SUNNY     88  73  60 SW6       29.97S HX  95

$$

NCZ024-NYZ072-PAZ021-071-VAZ022-071-301700-
OTHER REGIONAL OBSERVATIONS

CITY           SKY/WX    TMP DP  RH WIND       PRES   REMARKS
NEW YORK CITY  CLOUDY    83  72  69 SW6       29.91F
PHILADELPHIA   CLOUDY    87  73  62 SW13G22   29.90S HX  94
PITTSBURGH     MOSUNNY   83  54  36 NW13      30.00R
ROANOKE        PTSUNNY   81  73  76 W10       30.03S
RICHMOND       CLOUDY    86  73  65 S8        29.95S HX  93
RALEIGH        MOSUNNY   88  72  58 W3        29.98S HX  94

$$

ANZ530>537-301700-
MARINE OBSERVATIONS

STATION/POSITION TIME  TEMP    WIND        PRES
                       AIR SEA DIR/SP/G
                 (UTC) (F)     (DEG/KT/KT) (MB)
THOMAS PT LIGHT  NOT AVBL
BALT KEY BRIDGE  1500   83     200/  7/ 10 1012.6R
COVE POINT       1500   81     220/ 11/ 15 1014.2R
LEWISETTA        1500   83 83  220/  9/ 10 1013.5R
SOLOMONS ISLAND  1500      82                N/A

$$




USA.gov is the U.S. government's official web portal to all federal, state and local government web resources and services.